Weather History for Aberdeen / Amory, MS

Change the Weather History Date:

Friday, February 8, 2013

  Actual Average (KCBM) Record (KCBM)
Temperature  
Mean Temperature 44 °F -  
Max Temperature 55 °F 55 °F 73 °F (1999)
Min Temperature 32 °F 36 °F 24 °F (2004)
Degree Days  
Heating Degree Days 22    
Moisture  
Dew Point 41 °F    
Average Humidity 76    
Maximum Humidity 100    
Minimum Humidity 54    
Precipitation  
Precipitation 0.02 in - - ()
Sea Level Pressure  
Sea Level Pressure 30.13 in    
Wind  
Wind Speed 7 mph (NNE)    
Max Wind Speed 17 mph    
Max Gust Speed 23 mph    
Visibility 7 miles    
Events Rain    
Averages and records for this station are not official NWS values.
T = Trace of Precipitation, MM = Missing Value Source: NWS Daily Summary

Daily Weather History Graph

Daily Weather History Graph

Search for Another Location

Airport:

Trip Planner

Search our weather history database for the weather conditions in past years. The results will help you decide how hot, cold, wet, or windy it might be!

Date:

Astronomy

Feb. 08, 2013 Rise Set
Actual Time 6:44 AM CST 5:31 PM CST
Civil Twilight 6:19 AM CST 5:57 PM CST
Nautical Twilight 5:49 AM CST 6:27 PM CST
Astronomical Twilight 5:20 AM CST 6:56 PM CST
Moon 5:11 AM CST (2/8) 4:06 PM CST (2/8)
Length of Visible Light 11h 38m
Length of Day
10h 46m
Waning Crescent, 3% of the Moon is Illuminated
Feb 8
Waning Crescent
Feb 10
New
Feb 17
First Quarter
Feb 25
Full
Mar 4
Last Quarter

Hourly Weather History & Observations

Time (CST) Temp. Windchill Dew Point Humidity Pressure Visibility Wind Dir Wind Speed Gust Speed Precip Events Conditions
12:15 AM 51.8 °F - 50.0 °F 94% 29.96 in 8.0 mi Calm Calm - N/A   Overcast
12:35 AM 51.8 °F - 51.8 °F 100% 29.96 in 5.0 mi SE 5.8 mph - N/A   Overcast
12:55 AM 51.8 °F - 50.0 °F 94% 29.96 in 5.0 mi SE 4.6 mph - N/A   Overcast
1:15 AM 51.8 °F - 50.0 °F 94% 29.96 in 6.0 mi SSE 5.8 mph - N/A   Overcast
1:35 AM 51.8 °F - 50.0 °F 94% 29.95 in 7.0 mi SE 6.9 mph - N/A   Overcast
1:55 AM 51.8 °F - 50.0 °F 94% 29.94 in 6.0 mi SSE 5.8 mph - N/A   Overcast
2:15 AM 51.8 °F - 50.0 °F 94% 29.94 in 5.0 mi SSE 4.6 mph - N/A   Overcast
2:35 AM 51.8 °F - 50.0 °F 94% 29.95 in 6.0 mi SSE 6.9 mph - N/A   Overcast
2:55 AM 51.8 °F - 50.0 °F 94% 29.95 in 6.0 mi South 5.8 mph - N/A   Overcast
3:15 AM 51.8 °F - 50.0 °F 94% 29.95 in 5.0 mi South 5.8 mph - N/A   Overcast
3:55 AM 51.8 °F - 46.4 °F 82% 29.95 in 2.5 mi South 8.1 mph - N/A Rain Rain
4:15 AM 51.8 °F - 50.0 °F 94% 29.95 in 4.0 mi South 4.6 mph - N/A   Overcast
4:35 AM 51.8 °F - 48.2 °F 88% 29.95 in 3.0 mi South 5.8 mph - N/A   Overcast
4:55 AM 51.8 °F - 46.4 °F 82% 29.95 in 2.0 mi South 5.8 mph - N/A   Haze
5:15 AM 51.8 °F - 48.2 °F 88% 29.95 in 1.0 mi South 5.8 mph - N/A Rain Light Rain
5:35 AM 51.8 °F - 46.4 °F 82% 29.97 in 1.2 mi Calm Calm - N/A   Light Drizzle
5:55 AM 51.8 °F - 46.4 °F 82% 29.98 in 5.0 mi Calm Calm - N/A   Haze
6:15 AM 53.6 °F - 46.4 °F 77% 29.98 in 2.5 mi Calm Calm - N/A   Haze
6:35 AM 53.6 °F - 46.4 °F 77% 29.99 in 1.0 mi Calm Calm - N/A   Haze
6:55 AM 51.8 °F - 46.4 °F 82% 30.00 in 0.8 mi NNE 3.5 mph - N/A   Drizzle
7:35 AM 51.8 °F - 46.4 °F 82% 30.02 in 0.5 mi NNE 6.9 mph - N/A   Light Drizzle
8:15 AM 51.8 °F - 42.8 °F 71% 30.05 in 1.2 mi NNE 9.2 mph - N/A Rain Light Rain
8:35 AM 51.8 °F - 42.8 °F 71% 30.06 in 3.0 mi NNE 6.9 mph - N/A   Light Drizzle
8:55 AM 51.8 °F - 46.4 °F 82% 30.07 in 1.2 mi North 6.9 mph - 0.02 in   Drizzle
9:15 AM 51.8 °F - 46.4 °F 82% 30.08 in 3.0 mi NNE 10.4 mph 18.4 mph N/A   Haze
9:35 AM 50.0 °F - 42.8 °F 76% 30.10 in 9.0 mi North 13.8 mph - N/A   Overcast
9:55 AM 50.0 °F - 44.6 °F 82% 30.11 in 5.0 mi North 9.2 mph - N/A   Haze
10:15 AM 48.2 °F - 42.8 °F 82% 30.13 in 2.5 mi North 11.5 mph - N/A   Haze
10:35 AM 48.2 °F - 44.6 °F 87% 30.14 in 9.0 mi North 17.3 mph 20.7 mph N/A   Overcast
10:55 AM 50.0 °F - 41.0 °F 71% 30.15 in 9.0 mi North 13.8 mph 18.4 mph N/A   Overcast
11:15 AM 50.0 °F - 42.8 °F 76% 30.15 in 9.0 mi NNE 11.5 mph 23.0 mph N/A   Overcast
11:35 AM 51.8 °F - 42.8 °F 71% 30.16 in 9.0 mi North 16.1 mph - N/A   Overcast
11:55 AM 51.8 °F - 41.0 °F 67% 30.16 in 10.0 mi North 17.3 mph 23.0 mph N/A   Overcast
12:15 PM 51.8 °F - 41.0 °F 67% 30.17 in 9.0 mi North 15.0 mph 21.9 mph N/A   Mostly Cloudy
12:35 PM 51.8 °F - 39.2 °F 62% 30.17 in 9.0 mi North 16.1 mph - N/A   Overcast
12:55 PM 51.8 °F - 39.2 °F 62% 30.17 in 9.0 mi North 16.1 mph - N/A   Overcast
1:15 PM 53.6 °F - 41.0 °F 62% 30.18 in 9.0 mi NNW 16.1 mph 20.7 mph N/A   Overcast
1:35 PM 53.6 °F - 41.0 °F 62% 30.18 in 9.0 mi North 16.1 mph - N/A   Overcast
1:55 PM 53.6 °F - 41.0 °F 62% 30.18 in 9.0 mi North 13.8 mph 18.4 mph N/A   Mostly Cloudy
2:15 PM 55.4 °F - 41.0 °F 58% 30.18 in 9.0 mi North 10.4 mph - N/A   Mostly Cloudy
2:35 PM 55.4 °F - 41.0 °F 58% 30.18 in 9.0 mi NNW 11.5 mph - N/A   Mostly Cloudy
2:55 PM 55.4 °F - 39.2 °F 54% 30.19 in 10.0 mi North 12.7 mph - N/A   Scattered Clouds
3:15 PM 55.4 °F - 39.2 °F 54% 30.19 in 9.0 mi NNE 15.0 mph 20.7 mph N/A   Partly Cloudy
3:35 PM 55.4 °F - 39.2 °F 54% 30.19 in 9.0 mi North 9.2 mph 17.3 mph N/A   Clear
3:55 PM 55.4 °F - 39.2 °F 54% 30.19 in 9.0 mi North 11.5 mph - N/A   Clear
4:15 PM 53.6 °F - 37.4 °F 54% 30.20 in 10.0 mi North 15.0 mph - N/A   Clear
4:35 PM 53.6 °F - 37.4 °F 54% 30.21 in 9.0 mi North 11.5 mph - N/A   Clear
4:55 PM 51.8 °F - 35.6 °F 54% 30.21 in 9.0 mi NNE 10.4 mph - N/A   Clear
5:15 PM 50.0 °F - 35.6 °F 58% 30.22 in 9.0 mi NNE 9.2 mph - N/A   Clear
5:35 PM 48.2 °F - 33.8 °F 58% 30.22 in 9.0 mi NNE 6.9 mph - N/A   Clear
5:55 PM 46.4 °F 41.9 °F 33.8 °F 62% 30.24 in 10.0 mi North 9.2 mph - N/A   Clear
6:15 PM 44.6 °F 38.8 °F 33.8 °F 66% 30.24 in 10.0 mi North 11.5 mph - N/A   Clear
6:35 PM 44.6 °F 39.7 °F 33.8 °F 66% 30.25 in 10.0 mi North 9.2 mph - N/A   Clear
6:55 PM 42.8 °F 37.5 °F 33.8 °F 70% 30.25 in 10.0 mi North 9.2 mph - N/A   Clear
7:15 PM 42.8 °F 37.0 °F 33.8 °F 70% 30.26 in 9.0 mi North 10.4 mph - N/A   Clear
7:35 PM 42.8 °F 37.5 °F 33.8 °F 70% 30.26 in 9.0 mi NNE 9.2 mph - N/A   Clear
7:55 PM 41.0 °F 36.4 °F 32.0 °F 70% 30.26 in 10.0 mi NNE 6.9 mph - N/A   Clear
8:15 PM 39.2 °F 35.0 °F 32.0 °F 75% 30.27 in 10.0 mi North 5.8 mph - N/A   Clear
8:55 PM 37.4 °F 32.1 °F 32.0 °F 81% 30.28 in 9.0 mi NNE 6.9 mph - N/A   Clear
9:15 PM 39.2 °F 34.2 °F 32.0 °F 75% 30.28 in 9.0 mi NNE 6.9 mph - N/A   Clear
9:35 PM 37.4 °F 32.8 °F 32.0 °F 81% 30.29 in 10.0 mi NNE 5.8 mph - N/A   Clear
9:55 PM 37.4 °F 34.9 °F 32.0 °F 81% 30.30 in 9.0 mi NNW 3.5 mph - N/A   Clear
10:15 PM 35.6 °F 32.8 °F 30.2 °F 81% 30.30 in 9.0 mi NNW 3.5 mph - N/A   Clear
10:35 PM 33.8 °F 30.8 °F 30.2 °F 87% 30.30 in 9.0 mi North 3.5 mph - N/A   Clear
10:55 PM 35.6 °F 32.8 °F 30.2 °F 81% 30.29 in 9.0 mi North 3.5 mph - N/A   Clear
11:15 PM 33.8 °F 30.8 °F 30.2 °F 87% 30.30 in 8.0 mi North 3.5 mph - N/A   Clear
11:35 PM 32.0 °F - 28.4 °F 87% 30.30 in 7.0 mi Calm Calm - N/A   Clear
11:55 PM 32.0 °F 28.7 °F 28.4 °F 87% 30.30 in 5.0 mi NNE 3.5 mph - N/A   Haze